Weather Roundup
Issued by NWS

Home | Current Version | Previous Version | Graphics & Text | Print | Product List | Glossary Off
Versions: 1 2 3 4 5 6 7 8 9 10 11 12 13 14 15 16 17 18 19 20 21 22 23 24 25 26 27 28 29 30 31 32 33 34 35 36 37 38 39 40 41 42 43 44 45 46 47 48 49 50

000
NZUS93 KARX 310959
HRRWXR

CURRENT HOURLY OBSERVATIONS ACROSS
MUCH OF THE UPPER MISSISSIPPI VALLEY
NATIONAL WEATHER SERVICE LA CROSSE WI
500 AM CDT MON AUG 31 2015


...SOUTHEAST MINNESOTA...


CITY           SKY/WX    TMP DP  RH WIND       PRES   REMARKS
ROCHESTER      CLOUDY    66  65  96 S14       30.00R FOG
ROCHESTER/MAYO CLOUDY    64  64 100 S6        29.99R
WINONA         CLOUDY    61  61 100 CALM      29.99R
AUSTIN         NOT AVBL
ALBERT LEA     CLOUDY    66  64  94 S8        29.97S FOG
DODGE CENTER   CLOUDY    64  64 100 SW13      29.98S FOG
PRESTON        CLOUDY    64  63  96 SW8       30.01S FOG
OWATONNA       CLOUDY    66  64  94 S8        29.96S FOG
FARIBAULT      CLOUDY    64  64 100 S7        29.95S FOG
$$

...ELSEWHERE IN MINNESOTA...


CITY           SKY/WX    TMP DP  RH WIND       PRES   REMARKS
MINNEAPOLIS    MOCLDY    63  62  97 SE7       29.93S
INTNL FALLS    NOT AVBL
DULUTH         MOCLDY    65  62  90 S10       29.89S
RED WING       MOCLDY    64  63  94 S7        29.95S
REDWOOD FALLS  CLEAR     64  62  93 S9        29.88S
MANKATO        CLOUDY    63  61  94 S6        29.93S
WORTHINGTON    CLEAR     64  61  88 S14       29.93S
FAIRMONT       CLEAR     64  59  82 S7        29.94S
$$

...SOUTHWEST WISCONSIN...


CITY           SKY/WX    TMP DP  RH WIND       PRES   REMARKS
LA CROSSE      CLOUDY    65  63  93 SE8       29.99S
PRAIRIE DU CHI FOG       60  59  96 CALM      30.01F VSB 3/4
BOSCOBEL       FOG       60  59  96 CALM      30.02F VSB 1/4
LONE ROCK      FOG       58  57  97 CALM      30.03S VSB 1/4
PLATTEVILLE      N/A     61  61 100 S3        30.03S VSB 1
FORT MC COY    MOCLDY    53  52  97 CALM      30.02S FOG
CAMP DOUGLAS   FOG       54  54 100 E3        30.01S VSB 1/2
VIROQUA          N/A     63  63 100 CALM      30.02F
WIS DELLS      CLEAR     61  60  95 CALM      30.02F FOG
$$

...ELSEWHERE IN WISCONSIN...


CITY           SKY/WX    TMP DP  RH WIND       PRES   REMARKS
MILWAUKEE      FOG       60  58  92 SW5       30.04R VSB 3/4
MADISON        FOG       58  57  97 CALM      30.03S VSB 1/2
GREEN BAY      CLOUDY    62  61  96 SW5       30.01F FOG
EAU CLAIRE     CLEAR     59  58  96 CALM      29.97S FOG
BLACK RVR FLS  FOG       53  53 100 CALM      30.00S VSB<1/4
MEDFORD        FOG       61  61 100 SW5       30.01S VSB 1/2
WAUSAU         CLOUDY    63  62  97 VRB3      30.00S FOG
WIS RAPIDS     FOG       58  56  93 CALM      30.03S VSB 1/4
MARSHFIELD     FOG       61  58  90 S3        30.01F VSB<1/4
RICE LAKE      CLOUDY    63  62  96 SE5       29.98S FOG
$$

...NORTHEAST IOWA...


CITY           SKY/WX    TMP DP  RH WIND       PRES   REMARKS
DECORAH        CLOUDY    63  63 100 S3        30.00S FOG
MASON CITY     FOG       60  60 100 S3        30.01R VSB 1/4
CHARLES CITY   FOG       63  63 100 S6        30.01S VSB 1/2
OELWEIN        FOG       59  59 100 SE5       30.02S VSB 1/4
$$

...ELSEWHERE IN IOWA...


CITY           SKY/WX    TMP DP  RH WIND       PRES   REMARKS
DES MOINES     PTCLDY    69  65  86 SE6       29.97F
IOWA CITY      FOG       61  60  97 CALM      30.02S VSB 1/4
FORT DODGE     CLEAR     61  57  88 SE3       29.98S
$$

...NORTHERN ILLINOIS...


CITY           SKY/WX    TMP DP  RH WIND       PRES   REMARKS
CHICAGO-OHARE  FOG       62  61  96 CALM      30.04R VSB 1/2
CHICAGO-MIDWAY PTCLDY    67  64  90 CALM      30.03S FOG
MOLINE         CLEAR     61  59  93 E3        30.02S FOG
ROCKFORD       FOG       59  56  89 CALM      30.06R VSB 1
PEORIA         CLEAR     68  64  87 E5        30.03R
$$

NOTE: "FAIR" INDICATES FEW OR NO CLOUDS BELOW 12,000 FEET WITH NO
SIGNIFICANT WEATHER AND/OR OBSTRUCTIONS TO VISIBILITY. WIND
SPEEDS ARE IN MILES-PER-HOUR.



USA.gov is the U.S. government's official web portal to all federal, state and local government web resources and services.